Location: Newark
(48.6461°N, 4.3644°W)
Time: 11:50:30
(UTC+00:00)

S-56A Canister/Altair - Pass Details

Date: 27 January 2020
Orbit: 633 x 2499 km, 38.9° (Epoch: 19 February)

Event Time Altitude Azimuth Distance (km) Brightness Sun altitude
Rises 23:40:58 0° 262° (W) 3,296 - -58.1°
Reaches altitude 10° 23:44:15 10° 244° (WSW) 2,177 - -58.3°
Maximum altitude 23:47:32 18° 200° (SSW) 1,577 - -58.5°
Drops below altitude 10° 23:50:36 10° 156° (SSE) 2,005 - -58.7°
Sets 23:53:28 0° 137° (SE) 2,934 - -58.8°
